User: anonymous   Login
Location: Unspecified
(0.0000°N, 0.0000°E)
Time: 08:50:20
(UTC+00:00)
Language:

TBA - TO BE ASSIGNED - Orbit

View from above orbital plane
View from above orbital plane
View from above satellite
View from above satellite

Ground track
Ground track

The orbit is defined by the following mean orbital elements,

1 67984U          26145.48880846 +.00000000 +00000-0 +57847-3 0 00005
2 67984  97.2832 155.5849 0001359  87.2648 272.8750 15.33456889    00
Epoch (UTC): 25 May 2026 11:43:53
Eccentricity: 0.0001359
inclination: 97.2832°
perigee height: 465 km
apogee height: 466 km
right ascension of ascending node: 155.5849°
argument of perigee: 87.2648°
revolutions per day: 15.33456889
mean anomaly at epoch: 272.8750°

The dashed part of the orbit path shows where the satellite is in the earth's shadow,  

DLR